| time (UTC) | temp C | wind direction | speed KPH | gust KPH | rain 1hr cm | rain 24hr cm | rain mn cm | humidity % | barometer mb |
| 20260509200819 | 13 | 57 | 4.8 | 17.7 | 0.00 | 0.00 | 0.00 | 1 | 1016.4 |
| 20260509195839 | 13 | 71 | 6.4 | 17.7 | 0.00 | 0.00 | 0.00 | 1 | 1016.3 |
| 20260509194858 | 13 | 56 | 8.0 | 16.1 | 0.00 | 0.00 | 0.00 | 1 | 1016.1 |
| 20260509193920 | 13 | 72 | 6.4 | 16.1 | 0.00 | 0.00 | 0.00 | 1 | 1016.1 |
| 20260509192914 | 13 | 58 | 6.4 | 14.5 | 0.00 | 0.00 | 0.00 | 3 | 1016.1 |
| 20260509191906 | 14 | 99 | 6.4 | 16.1 | 0.00 | 0.00 | 0.00 | 5 | 1016.1 |
| 20260509190929 | 14 | 33 | 8.0 | 17.7 | 0.00 | 0.00 | 0.00 | 12 | 1016.0 |
| 20260509185858 | 15 | 46 | 6.4 | 17.7 | 0.00 | 0.00 | 0.00 | 29 | 1015.9 |
| 20260509184829 | 15 | 73 | 6.4 | 16.1 | 0.00 | 0.00 | 0.00 | 42 | 1016.0 |
| 20260509183819 | 15 | 51 | 8.0 | 17.7 | 0.00 | 0.00 | 0.00 | 47 | 1016.0 |
| 20260509182825 | 15 | 79 | 8.0 | 19.3 | 0.00 | 0.00 | 0.00 | 49 | 1015.9 |
| 20260509181759 | 15 | 69 | 9.7 | 19.3 | 0.00 | 0.00 | 0.00 | 50 | 1015.8 |
| 20260509180735 | 15 | 49 | 9.7 | 20.9 | 0.00 | 0.00 | 0.00 | 50 | 1015.8 |
| 20260509174537 | 15 | 77 | 9.7 | 22.5 | 0.00 | 0.00 | 0.00 | 49 | 1015.7 |
| 20260509173523 | 15 | 40 | 9.7 | 22.5 | 0.00 | 0.00 | 0.00 | 49 | 1015.7 |
| 20260509172524 | 15 | 92 | 11.3 | 25.7 | 0.00 | 0.00 | 0.00 | 50 | 1015.7 |
| 20260509170402 | 16 | 47 | 11.3 | 27.4 | 0.00 | 0.00 | 0.00 | 49 | 1015.9 |
| 20260509165331 | 16 | 60 | 9.7 | 24.1 | 0.00 | 0.00 | 0.00 | 47 | 1016.0 |
| 20260509164352 | 16 | 73 | 11.3 | 24.1 | 0.00 | 0.00 | 0.00 | 46 | 1016.0 |
| 20260509163402 | 16 | 101 | 12.9 | 22.5 | 0.00 | 0.00 | 0.00 | 47 | 1016.1 |
| 20260509162413 | 16 | 71 | 11.3 | 22.5 | 0.00 | 0.00 | 0.00 | 48 | 1016.0 |
| 20260509161408 | 17 | 44 | 11.3 | 24.1 | 0.00 | 0.00 | 0.00 | 49 | 1016.1 |
| 20260509160345 | 17 | 75 | 9.7 | 24.1 | 0.00 | 0.00 | 0.00 | 50 | 1016.1 |
| 20260509155333 | 17 | 107 | 11.3 | 24.1 | 0.00 | 0.00 | 0.00 | 50 | 1016.2 |
| 20260509154319 | 17 | 83 | 11.3 | 20.9 | 0.00 | 0.00 | 0.00 | 48 | 1016.4 |
| 20260509153335 | 17 | 99 | 11.3 | 24.1 | 0.00 | 0.00 | 0.00 | 48 | 1016.5 |
| 20260509152315 | 17 | 77 | 9.7 | 24.1 | 0.00 | 0.00 | 0.00 | 47 | 1016.6 |
| 20260509151322 | 17 | 85 | 9.7 | 25.7 | 0.00 | 0.00 | 0.00 | 47 | 1016.4 |
| 20260509150320 | 17 | 96 | 12.9 | 25.7 | 0.00 | 0.00 | 0.00 | 44 | 1016.3 |
| 20260509145315 | 17 | 78 | 11.3 | 24.1 | 0.00 | 0.00 | 0.00 | 44 | 1016.4 |
| 20260509144244 | 17 | 101 | 11.3 | 25.7 | 0.00 | 0.00 | 0.00 | 43 | 1016.3 |
| 20260509143209 | 17 | 80 | 12.9 | 25.7 | 0.00 | 0.00 | 0.00 | 42 | 1016.2 |
| 20260509142145 | 17 | 27 | 11.3 | 25.7 | 0.00 | 0.00 | 0.00 | 39 | 1016.1 |
| 20260509140039 | 17 | 106 | 12.9 | 27.4 | 0.00 | 0.00 | 0.00 | 35 | 1016.1 |
| 20260509132801 | 18 | 56 | 11.3 | 25.7 | 0.00 | 0.00 | 0.00 | 45 | 1016.3 |
| 20260509131801 | 18 | 55 | 11.3 | 24.1 | 0.00 | 0.00 | 0.00 | 44 | 1016.4 |
| 20260509130739 | 18 | 90 | 9.7 | 20.9 | 0.00 | 0.00 | 0.00 | 46 | 1016.4 |
| 20260509125737 | 18 | 83 | 11.3 | 24.1 | 0.00 | 0.00 | 0.00 | 44 | 1016.6 |
| 20260509124728 | 17 | 114 | 11.3 | 24.1 | 0.00 | 0.00 | 0.00 | 44 | 1016.6 |
| 20260509123710 | 17 | 38 | 14.5 | 24.1 | 0.00 | 0.00 | 0.00 | 45 | 1016.7 |
| 20260509122718 | 18 | 50 | 11.3 | 25.7 | 0.00 | 0.00 | 0.00 | 43 | 1016.7 |
| 20260509121658 | 18 | 84 | 11.3 | 25.7 | 0.00 | 0.00 | 0.00 | 43 | 1016.7 |
| 20260509120640 | 18 | 88 | 11.3 | 22.5 | 0.00 | 0.00 | 0.00 | 44 | 1016.7 |
| 20260509115652 | 18 | 49 | 11.3 | 22.5 | 0.00 | 0.00 | 0.00 | 44 | 1016.7 |
| 20260509114617 | 18 | 28 | 11.3 | 20.9 | 0.00 | 0.00 | 0.00 | 43 | 1016.8 |
| 20260509113631 | 18 | 80 | 11.3 | 25.7 | 0.00 | 0.00 | 0.00 | 41 | 1016.9 |
| 20260509112605 | 18 | 96 | 11.3 | 25.7 | 0.00 | 0.00 | 0.00 | 44 | 1017.1 |
| 20260509111537 | 18 | 61 | 9.7 | 20.9 | 0.00 | 0.00 | 0.00 | 43 | 1017.2 |
| 20260509110552 | 18 | 59 | 11.3 | 20.9 | 0.00 | 0.00 | 0.00 | 41 | 1017.2 |
| 20260509105558 | 18 | 75 | 9.7 | 20.9 | 0.00 | 0.00 | 0.00 | 40 | 1017.2 |
| 20260509104605 | 18 | 61 | 11.3 | 25.7 | 0.00 | 0.00 | 0.00 | 41 | 1017.3 |
| 20260509103553 | 18 | 52 | 12.9 | 25.7 | 0.00 | 0.00 | 0.00 | 41 | 1017.3 |
| 20260509102530 | 18 | 80 | 8.0 | 17.7 | 0.00 | 0.00 | 0.00 | 36 | 1017.4 |
| 20260509101541 | 18 | 84 | 9.7 | 19.3 | 0.00 | 0.00 | 0.00 | 35 | 1017.5 |
| 20260509100541 | 18 | 58 | 9.7 | 19.3 | 0.00 | 0.00 | 0.00 | 37 | 1017.3 |
| 20260509094353 | 17 | 80 | 9.7 | 20.9 | 0.00 | 0.00 | 0.00 | 31 | 1017.3 |
| 20260509093318 | 18 | 61 | 9.7 | 20.9 | 0.00 | 0.00 | 0.00 | 26 | 1017.3 |
| 20260509092335 | 18 | 59 | 8.0 | 17.7 | 0.00 | 0.00 | 0.00 | 24 | 1017.3 |
| 20260509091329 | 18 | 35 | 6.4 | 17.7 | 0.00 | 0.00 | 0.00 | 17 | 1017.3 |
| 20260509090339 | 17 | 80 | 8.0 | 17.7 | 0.00 | 0.00 | 0.00 | 8 | 1017.3 |
| 20260509085325 | 17 | 49 | 8.0 | 16.1 | 0.00 | 0.00 | 0.00 | 1 | 1017.3 |
| 20260509083233 | 17 | 79 | 6.4 | 17.7 | 0.00 | 0.00 | 0.00 | 1 | 1017.4 |
| 20260509082233 | 17 | 42 | 6.4 | 17.7 | 0.00 | 0.00 | 0.00 | 1 | 1017.3 |
| 20260509080119 | 16 | 92 | 6.4 | 17.7 | 0.00 | 0.00 | 0.00 | 1 | 1017.3 |
| 20260509075135 | 16 | 76 | 4.8 | 14.5 | 0.00 | 0.00 | 0.00 | 1 | 1017.4 |
| 20260509074158 | 16 | 85 | 4.8 | 16.1 | 0.00 | 0.00 | 0.00 | 1 | 1017.3 |
| 20260509073204 | 16 | 86 | 6.4 | 16.1 | 0.00 | 0.00 | 0.00 | 1 | 1017.2 |
| 20260509072201 | 16 | 76 | 4.8 | 14.5 | 0.00 | 0.00 | 0.00 | 1 | 1017.2 |
| 20260509071140 | 15 | 77 | 6.4 | 14.5 | 0.00 | 0.00 | 0.00 | 1 | 1017.2 |
| 20260509070119 | 15 | 92 | 4.8 | 14.5 | 0.00 | 0.00 | 0.00 | 1 | 1017.2 |
| 20260509065046 | 15 | 86 | 3.2 | 11.3 | 0.00 | 0.00 | 0.00 | 1 | 1017.3 |
| 20260509064026 | 14 | 80 | 1.6 | 9.7 | 0.00 | 0.00 | 0.00 | 1 | 1017.3 |
| 20260509063009 | 13 | 92 | 1.6 | 9.7 | 0.00 | 0.00 | 0.00 | 1 | 1017.4 |
| 20260509060912 | 12 | 119 | 0.0 | 9.7 | 0.00 | 0.00 | 0.00 | 1 | 1017.4 |
| 20260509055854 | 12 | 131 | 0.0 | 1.6 | 0.00 | 0.00 | 0.00 | 1 | 1017.3 |
| 20260509054907 | 12 | 132 | 0.0 | 0.0 | 0.00 | 0.00 | 0.00 | 1 | 1017.3 |
| 20260509053847 | 11 | 132 | 0.0 | 0.0 | 0.00 | 0.00 | 0.00 | 1 | 1017.3 |
| 20260509052849 | 10 | 132 | 0.0 | 0.0 | 0.00 | 0.00 | 0.00 | 1 | 1017.3 |
| 20260509051906 | 10 | 132 | 0.0 | 0.0 | 0.00 | 0.00 | 0.00 | 1 | 1017.3 |
| 20260509050838 | 10 | 132 | 0.0 | 0.0 | 0.00 | 0.00 | 0.00 | 1 | 1017.1 |
| 20260509045855 | 9 | 132 | 0.0 | 0.0 | 0.00 | 0.00 | 0.00 | 1 | 1017.1 |
| 20260509044830 | 10 | 132 | 0.0 | 0.0 | 0.00 | 0.00 | 0.00 | 1 | 1017.1 |
| 20260509043818 | 10 | 132 | 0.0 | 0.0 | 0.00 | 0.00 | 0.00 | 1 | 1017.1 |
| 20260509042837 | 10 | 130 | 0.0 | 0.0 | 0.00 | 0.00 | 0.00 | 1 | 1017.0 |
| 20260509041846 | 10 | 130 | 0.0 | 0.0 | 0.00 | 0.00 | 0.00 | 1 | 1017.0 |
| 20260509040858 | 10 | 130 | 0.0 | 0.0 | 0.00 | 0.00 | 0.00 | 1 | 1016.9 |
| 20260509035850 | 11 | 130 | 0.0 | 0.0 | 0.00 | 0.00 | 0.00 | 1 | 1016.9 |
| 20260509034850 | 11 | 130 | 0.0 | 0.0 | 0.00 | 0.00 | 0.00 | 1 | 1016.8 |
| 20260509033826 | 10 | 130 | 0.0 | 0.0 | 0.00 | 0.00 | 0.00 | 1 | 1016.9 |
| 20260509032839 | 11 | 130 | 0.0 | 0.0 | 0.00 | 0.00 | 0.00 | 1 | 1016.9 |
| 20260509031853 | 11 | 130 | 0.0 | 0.0 | 0.00 | 0.00 | 0.00 | 1 | 1017.0 |
| 20260509030825 | 11 | 130 | 0.0 | 0.0 | 0.00 | 0.00 | 0.00 | 1 | 1017.0 |
| 20260509025834 | 11 | 130 | 0.0 | 0.0 | 0.00 | 0.00 | 0.00 | 1 | 1017.1 |
| 20260509024858 | 11 | 130 | 0.0 | 0.0 | 0.00 | 0.00 | 0.00 | 1 | 1017.1 |
| 20260509023824 | 11 | 130 | 0.0 | 0.0 | 0.00 | 0.00 | 0.00 | 1 | 1017.1 |
| 20260509022823 | 11 | 130 | 0.0 | 0.0 | 0.00 | 0.00 | 0.00 | 1 | 1017.1 |
| 20260509021814 | 11 | 130 | 0.0 | 0.0 | 0.00 | 0.00 | 0.00 | 1 | 1017.1 |
| 20260509020749 | 11 | 130 | 0.0 | 0.0 | 0.00 | 0.00 | 0.00 | 1 | 1017.1 |
| 20260509015725 | 12 | 130 | 0.0 | 0.0 | 0.00 | 0.00 | 0.00 | 1 | 1017.2 |
| 20260509014721 | 11 | 130 | 0.0 | 0.0 | 0.00 | 0.00 | 0.00 | 1 | 1017.1 |
| 20260509013720 | 11 | 130 | 0.0 | 0.0 | 0.00 | 0.00 | 0.00 | 1 | 1017.2 |
| 20260509012735 | 11 | 130 | 0.0 | 0.0 | 0.00 | 0.00 | 0.00 | 1 | 1017.3 |
| 20260509011736 | 11 | 130 | 0.0 | 0.0 | 0.00 | 0.00 | 0.00 | 1 | 1017.4 |
| 20260509010740 | 11 | 130 | 0.0 | 0.0 | 0.00 | 0.00 | 0.00 | 1 | 1017.4 |
| 20260509005753 | 11 | 130 | 0.0 | 0.0 | 0.00 | 0.00 | 0.00 | 1 | 1017.4 |
| 20260509004815 | 11 | 130 | 0.0 | 0.0 | 0.00 | 0.00 | 0.00 | 1 | 1017.4 |
| 20260509001504 | 11 | 130 | 0.0 | 0.0 | 0.00 | 0.00 | 0.00 | 1 | 1017.5 |
| 20260509000459 | 11 | 130 | 0.0 | 0.0 | 0.00 | 0.00 | 0.00 | 1 | 1017.6 |
| 20260508234343 | 11 | 130 | 0.0 | 0.0 | 0.00 | 0.00 | 0.00 | 1 | 1017.7 |
| 20260508233406 | 11 | 130 | 0.0 | 0.0 | 0.00 | 0.00 | 0.00 | 1 | 1017.7 |
| 20260508232344 | 11 | 130 | 0.0 | 0.0 | 0.00 | 0.00 | 0.00 | 1 | 1017.9 |
| 20260508230233 | 11 | 130 | 0.0 | 0.0 | 0.00 | 0.00 | 0.00 | 1 | 1017.7 |
| 20260508225155 | 11 | 130 | 0.0 | 0.0 | 0.00 | 0.00 | 0.00 | 1 | 1017.6 |
| 20260508224158 | 11 | 130 | 0.0 | 0.0 | 0.00 | 0.00 | 0.00 | 1 | 1017.7 |
| 20260508223203 | 11 | 131 | 0.0 | 0.0 | 0.00 | 0.00 | 0.00 | 1 | 1017.7 |
| 20260508221051 | 11 | 124 | 0.0 | 0.0 | 0.00 | 0.00 | 0.00 | 1 | 1017.5 |
| 20260508220054 | 11 | 119 | 0.0 | 0.0 | 0.00 | 0.00 | 0.00 | 1 | 1017.5 |
| 20260508215048 | 11 | 119 | 0.0 | 0.0 | 0.00 | 0.00 | 0.00 | 1 | 1017.5 |
| 20260508214057 | 11 | 119 | 0.0 | 0.0 | 0.00 | 0.00 | 0.00 | 1 | 1017.5 |
| 20260508213034 | 11 | 119 | 0.0 | 0.0 | 0.00 | 0.00 | 0.00 | 1 | 1017.5 |
| 20260508212029 | 11 | 119 | 0.0 | 0.0 | 0.00 | 0.00 | 0.00 | 1 | 1017.5 |
| 20260508205920 | 11 | 118 | 0.0 | 0.0 | 0.00 | 0.00 | 0.00 | 1 | 1017.4 |
| 20260508204910 | 11 | 119 | 0.0 | 0.0 | 0.00 | 0.00 | 0.00 | 1 | 1017.3 |
| 20260508202739 | 11 | 118 | 1.6 | 4.8 | 0.00 | 0.00 | 0.00 | 1 | 1017.2 |